Starlink 1979

operational
NORAD ID: 47577 Int'l Des: 2021-009 Owner: SPXS Country: US Constellation: starlink
LEOCIRCULAR

Starlink 1979について

説明を読み込み中...

リアルタイム位置

3D地球を読み込み中...

次回通過

高度履歴

Altitude vs Time

uPlot chart will show altitude changes over time

軌道要素

1 47577U 21009AF 25294.00002315 .00111009 00000-0 18172-2 0 9998
2 47577 53.0528 272.3815 0001746 109.5661 300.3988 15.51667205 5687
Epoch: Oct 21, 2025 • Age: 10 hours

現在のステータス

高度 425.1 km
速度 7.66 km/s
衛星直下点 -38.25°S, 48.2°E
打ち上げ日 Feb 4, 2021
運用期間 4.7 years
タイプ internet

技術仕様

分類 Payload
質量 260.00 kg
乾燥質量 248.00 kg
総質量 260.00 kg
長さ 0.20 m
直径 2.80 m
スパン 9.00 m
形状 Box + pan
製造者 SPXS
バスタイプ Starlink
フェーズステータス In Orbit
所有者/国 SPXS/US

大規模コンステレーション

Loading constellations...